(57781) = 2001 VA79

Discovered at Palomar on 2001-11-09 by NEAT.

Orbit

Orbit type: Main Belt

Note: WebGL enabled browser required.

epoch2024-03-31.0
epoch JD2460400.5
perihelion date2024-03-09.62912
perihelion JD2460379.12912
argument of perihelion (°)9.17942
ascending node (°)230.82618
inclination (°)4.69325
eccentricity0.1510810
perihelion distance (AU)1.9243915
Tisserand w.r.t. Jupiter3.6
ΔV w.r.t. Earth (km/sec)8.7
semimajor axis (AU)2.2668730
mean anomaly (°)6.17143
mean daily motion (°/day)0.28877730
aphelion distance (AU)2.609
period (years)3.41
P-vector [x]-0.50033011
P-vector [y]-0.79948961
P-vector [z]-0.33239457
Q-vector [x]0.86350817
Q-vector [y]-0.48887490
Q-vector [z]-0.12391518
absolute magnitude15.97
phase slope0.15
uncertainty0
referenceMPEC 2024-E179
observations used1181
oppositions20
arc length (days)11359
first opposition used1991
last opposition used2023
residual rms (arc-secs)0.68
perturbers coarse indicatorM-v
perturbers precise indicator003Ek
first observation date used1991-12-07.0
last observation date used2023-01-12.0
computer nameMPCLINUX
JD of orbit computation2456966.745218
perihelion JD uncertainty (days)4.6218E-05
argument of perihelion uncertainty (°)4.7022E-05
ascending node uncertainty (°)4.5213E-05
inclination uncertainty (°)3.2699E-06
eccentricity uncertainty 3.0093E-08
perihelion distance uncertainty (AU)6.6178E-08
Minimum Orbit Intersection Distances (in AU)
for orbit epoch: 2460400.5, reference: E2024-GB3
Mercury1.46201
Venus1.19953
Earth0.91219
Mars0.36446
Jupiter2.39078
Saturn6.46224
Uranus16.2255
Neptune27.2371

Observations

1204 total observations over interval: 1991 12 07.24190 – 2023 01 12.316699
These data are available for download (format description).

Date (UT) J2000 RA J2000 Dec Magn Location Ref
1991 12 07.24190 04 47 57.21 +19 29 35.2   691 – Steward Observatory, Kitt Peak-Spacewatch MPS 55139
1991 12 07.27546 04 47 55.25 +19 29 20.8   691 – Steward Observatory, Kitt Peak-Spacewatch MPS 55139
1991 12 07.29727 04 47 53.36 +19 29 23.6 19.7 V 691 – Steward Observatory, Kitt Peak-Spacewatch MPS 55139
1993 05 25.25192 14 14 05.12 -13 37 20.2 18.4 V 691 – Steward Observatory, Kitt Peak-Spacewatch MPS 49624
1993 05 25.29426 14 14 03.87 -13 37 04.2   691 – Steward Observatory, Kitt Peak-Spacewatch MPS 49624
1993 05 25.33326 14 14 02.75 -13 36 49.4   691 – Steward Observatory, Kitt Peak-Spacewatch MPS 49624
1994 12 08.20734 01 26 16.18 +10 15 40.6 20.0 V 691 – Steward Observatory, Kitt Peak-Spacewatch MPS 81304
1994 12 08.21758 01 26 16.12 +10 15 39.0 19.9 V 691 – Steward Observatory, Kitt Peak-Spacewatch MPS 81304
1994 12 08.22662 01 26 16.05 +10 15 37.3 20.0 V 691 – Steward Observatory, Kitt Peak-Spacewatch MPS 81304
1996 02 17.27481 09 20 54.82 +06 47 20.9 18.4 V 691 – Steward Observatory, Kitt Peak-Spacewatch MPS 49624
1996 02 17.29580 09 20 53.47 +06 47 27.4   691 – Steward Observatory, Kitt Peak-Spacewatch MPS 49624
1996 02 17.31681 09 20 52.13 +06 47 34.2   691 – Steward Observatory, Kitt Peak-Spacewatch MPS 49624
1996 03 18.12112 08 58 56.66 +09 25 46.4 19.8 V 691 – Steward Observatory, Kitt Peak-Spacewatch MPS 49624
1996 03 18.13471 08 58 56.39 +09 25 50.1   691 – Steward Observatory, Kitt Peak-Spacewatch MPS 49624
1996 03 18.14769 08 58 56.11 +09 25 53.3   691 – Steward Observatory, Kitt Peak-Spacewatch MPS 49624
2001 10 21.34938 03 28 16.24 +19 43 00.7 19.3   704 – Lincoln Laboratory ETS, New Mexico MPS 44826
2001 10 21.36571 03 28 15.40 +19 42 55.8 19.8   704 – Lincoln Laboratory ETS, New Mexico MPS 44826
2001 10 21.38205 03 28 14.52 +19 42 51.8 20.1   704 – Lincoln Laboratory ETS, New Mexico MPS 44826
2001 10 21.39839 03 28 13.72 +19 42 47.4 20.0   704 – Lincoln Laboratory ETS, New Mexico MPS 44826
2001 10 21.41474 03 28 12.78 +19 42 42.9 20.0   704 – Lincoln Laboratory ETS, New Mexico MPS 44826
2001 11 09.29459 03 09 53.14 +18 01 49.1 19.6   704 – Lincoln Laboratory ETS, New Mexico MPS 44826
2001 11 09.30915 03 09 52.16 +18 01 44.7 19.8   704 – Lincoln Laboratory ETS, New Mexico MPS 44826
2001 11 09.32361 03 09 51.23 +18 01 38.2 20.2   704 – Lincoln Laboratory ETS, New Mexico MPS 44826
2001 11 09.33809 03 09 50.34 +18 01 34.3 20.0   704 – Lincoln Laboratory ETS, New Mexico MPS 44826
2001 11 09.35257 03 09 49.38 +18 01 29.2 19.7   704 – Lincoln Laboratory ETS, New Mexico MPS 44826
2001 11 09.39939 03 09 46.36 +18 01 11.9 19.1   644 – Palomar Mountain/NEAT MPS 42178
2001 11 09.42068 03 09 44.96 +18 01 04.2 19.4   644 – Palomar Mountain/NEAT MPS 42178
2001 11 09.44183 03 09 43.57 +18 00 56.3 19.8   644 – Palomar Mountain/NEAT MPS 42178
2001 11 16.33580 03 02 29.50 +17 19 11.4 19.5   644 – Palomar Mountain/NEAT MPS 42178
2001 11 16.35698 03 02 28.14 +17 19 03.7 19.6   644 – Palomar Mountain/NEAT MPS 42178
2001 11 16.37782 03 02 26.81 +17 18 55.9 19.4   644 – Palomar Mountain/NEAT MPS 42178
2001 11 19.22109 02 59 33.04 +17 01 43.5 19.5   704 – Lincoln Laboratory ETS, New Mexico MPS 42178
2001 11 19.23285 02 59 32.33 +17 01 40.3 19.5 R 699 – Lowell Observatory-LONEOS MPS 42178
2001 11 19.23600 02 59 32.14 +17 01 38.4 19.6   704 – Lincoln Laboratory ETS, New Mexico MPS 42178
2001 11 19.25088 02 59 31.19 +17 01 33.0 19.5   704 – Lincoln Laboratory ETS, New Mexico MPS 42178
2001 11 19.25641 02 59 30.92 +17 01 30.8   699 – Lowell Observatory-LONEOS MPS 42178
2001 11 19.26559 02 59 30.29 +17 01 27.7 19.6   704 – Lincoln Laboratory ETS, New Mexico MPS 42178
2001 11 19.28005 02 59 29.33 +17 01 23.1   699 – Lowell Observatory-LONEOS MPS 42178
2001 11 19.28029 02 59 29.32 +17 01 22.2 19.7   704 – Lincoln Laboratory ETS, New Mexico MPS 42178
2001 11 19.30363 02 59 27.97 +17 01 14.0   699 – Lowell Observatory-LONEOS MPS 42178
2001 11 20.22153 02 58 33.05 +16 55 44.8 19.0   704 – Lincoln Laboratory ETS, New Mexico MPS 44826
2001 11 20.23625 02 58 32.21 +16 55 39.6 19.7   704 – Lincoln Laboratory ETS, New Mexico MPS 44826
2001 11 20.25110 02 58 31.26 +16 55 34.1 19.5   704 – Lincoln Laboratory ETS, New Mexico MPS 44826
2001 11 20.26579 02 58 30.38 +16 55 28.3 19.6   704 – Lincoln Laboratory ETS, New Mexico MPS 44826
2001 11 20.28049 02 58 29.39 +16 55 21.9 20.0   704 – Lincoln Laboratory ETS, New Mexico MPS 44826
2001 11 21.23767 02 57 32.81 +16 49 41.7 19.7   704 – Lincoln Laboratory ETS, New Mexico MPS 49624
2001 11 21.25234 02 57 31.97 +16 49 35.8 19.5   704 – Lincoln Laboratory ETS, New Mexico MPS 49624
2001 11 21.26700 02 57 31.12 +16 49 31.2 20.2   704 – Lincoln Laboratory ETS, New Mexico MPS 49624
2001 11 21.28167 02 57 30.23 +16 49 24.8 19.3   704 – Lincoln Laboratory ETS, New Mexico MPS 49624
2001 12 11.21884 02 41 52.68 +15 07 29.1 19.8   704 – Lincoln Laboratory ETS, New Mexico MPS 44826
2001 12 11.23466 02 41 52.17 +15 07 25.7 19.7   704 – Lincoln Laboratory ETS, New Mexico MPS 44826
2001 12 11.26675 02 41 50.96 +15 07 18.1 20.2   704 – Lincoln Laboratory ETS, New Mexico MPS 44826
2001 12 14.14464 02 40 24.63 +14 56 27.4 19.5   704 – Lincoln Laboratory ETS, New Mexico MPS 44826
2001 12 14.15985 02 40 24.20 +14 56 24.2 20.0   704 – Lincoln Laboratory ETS, New Mexico MPS 44826
2001 12 14.17511 02 40 23.72 +14 56 21.3 20.1   704 – Lincoln Laboratory ETS, New Mexico MPS 44826
2001 12 14.19034 02 40 23.32 +14 56 17.5 20.2   704 – Lincoln Laboratory ETS, New Mexico MPS 44826
2001 12 14.20543 02 40 22.86 +14 56 14.5 19.6   704 – Lincoln Laboratory ETS, New Mexico MPS 44826
2001 12 17.14200 02 39 09.61 +14 46 27.7 19.7   704 – Lincoln Laboratory ETS, New Mexico MPS 44826
2001 12 17.15717 02 39 09.30 +14 46 25.0 20.4   704 – Lincoln Laboratory ETS, New Mexico MPS 44826
2001 12 17.17234 02 39 08.91 +14 46 23.6 20.5   704 – Lincoln Laboratory ETS, New Mexico MPS 44826
2001 12 17.20273 02 39 08.13 +14 46 16.2 20.5   704 – Lincoln Laboratory ETS, New Mexico MPS 44826
2003 01 07.47280 11 32 04.72 -03 43 12.2 19.8   704 – Lincoln Laboratory ETS, New Mexico MPS 69897
2003 01 07.48746 11 32 05.18 -03 43 17.1 19.6   704 – Lincoln Laboratory ETS, New Mexico MPS 69897
2003 01 07.50249 11 32 05.66 -03 43 23.0 19.7   704 – Lincoln Laboratory ETS, New Mexico MPS 69897
2003 02 09.50761 11 35 25.39 -05 25 41.4 19.8   608 – Haleakala-AMOS MPS 73275
2003 02 09.51845 11 35 25.10 -05 25 40.7 19.7   608 – Haleakala-AMOS MPS 73275
2003 02 09.52950 11 35 24.82 -05 25 40.7 19.6   608 – Haleakala-AMOS MPS 73275
2003 03 07.29618 11 17 03.26 -03 49 35.6 17.8 R 699 – Lowell Observatory-LONEOS MPS 74137
2003 03 07.29853 11 17 03.18 -03 49 36.3 17.6   704 – Lincoln Laboratory ETS, New Mexico MPS 74137
2003 03 07.29928 11 17 03.03 -03 49 35.2 17.6   704 – Lincoln Laboratory ETS, New Mexico MPS 74137
2003 03 07.30541 11 17 02.67 -03 49 32.7 18.5   704 – Lincoln Laboratory ETS, New Mexico MPS 74137
2003 03 07.31173 11 17 02.40 -03 49 30.8 17.7   704 – Lincoln Laboratory ETS, New Mexico MPS 74137
2003 03 07.31211 11 17 02.30 -03 49 29.9   699 – Lowell Observatory-LONEOS MPS 74137
2003 03 07.31220 11 17 02.26 -03 49 29.7 17.8   704 – Lincoln Laboratory ETS, New Mexico MPS 74137
2003 03 07.31933 11 17 01.88 -03 49 27.8 18.4   704 – Lincoln Laboratory ETS, New Mexico MPS 74137
2003 03 07.32474 11 17 01.63 -03 49 25.9 17.8   704 – Lincoln Laboratory ETS, New Mexico MPS 74137
2003 03 07.32806 11 17 01.35 -03 49 22.8   699 – Lowell Observatory-LONEOS MPS 74137
2003 03 07.33778 11 17 00.85 -03 49 20.3 17.6   704 – Lincoln Laboratory ETS, New Mexico MPS 74137
2003 03 07.34154 11 17 00.58 -03 49 19.2 18.5   704 – Lincoln Laboratory ETS, New Mexico MPS 74137
2003 03 07.34401 11 17 00.44 -03 49 16.6   699 – Lowell Observatory-LONEOS MPS 74137
2003 03 07.35073 11 17 00.07 -03 49 16.0 17.4   704 – Lincoln Laboratory ETS, New Mexico MPS 74137
2003 03 07.35120 11 16 59.98 -03 49 14.4 18.1   704 – Lincoln Laboratory ETS, New Mexico MPS 74137
2003 03 07.35459 11 16 59.71 -03 49 12.9 18.4   704 – Lincoln Laboratory ETS, New Mexico MPS 74137
2003 03 07.36898 11 16 58.96 -03 49 08.0 18.4   704 – Lincoln Laboratory ETS, New Mexico MPS 74137
